Kelso-Longview, WA
on Saturday, February 2, 2013

Saturday
Previous Day Next Day
Daily Summary
 ActualAverage (KSPB)Record (KSPB)
Temperature
Mean Temperature °F °F  
Max Temperature 53°F °F 55°F (2012)
Min Temperature 33°F °F 0°F (2007)
Degree Days
Heating Degree Days 22    
Month to date heating degree days  
Since 1 July heating degree days  
Cooling Degree Days 0    
Month to date cooling degree days  
Year to date cooling degree days  
Moisture
Dew Point 36°F   
Average Humidity 82    
Maximum Humidity 93    
Minimum Humidity 58    
Precipitation
Precipitation 0.00 in in 0.76 in (2008)
Month to date precipitation  
Year to date precipitation  
Wind
Wind Speed 1 mph   
Max Wind Speed 6 mph   
Max Gust Speed mph   
Visibility 9 miles   
Events     

Key: T is trace of precipitation, MM is missing value
Source: NWS Daily Summary
Time(PST)TemperatureDew PointHumidity Pressure Visibility Wind DirectionWind SpeedGust SpeedPrecipitationEvents Conditions
12:15 AM 37.4°F 33.8°F 87% 30.33 in 10.0 miles Calm Calm - N/A   Mostly Cloudy
12:35 AM 37.4°F 33.8°F 87% 30.33 in 9.0 miles SE 3.5 mph - N/A   Mostly Cloudy
12:55 AM 35.6°F 33.8°F 93% 30.33 in 7.0 miles Calm Calm - N/A   Scattered Clouds
1:15 AM 37.4°F 33.8°F 87% 30.33 in 9.0 miles East 3.5 mph - N/A   Mostly Cloudy
1:35 AM 35.6°F 33.8°F 93% 30.33 in 7.0 miles Calm Calm - N/A   Mostly Cloudy
1:55 AM 35.6°F 33.8°F 93% 30.34 in 8.0 miles Calm Calm - N/A   Scattered Clouds
2:15 AM 37.4°F 33.8°F 87% 30.35 in 9.0 miles Calm Calm - N/A   Mostly Cloudy
2:35 AM 35.6°F 33.8°F 93% 30.35 in 10.0 miles Calm Calm - N/A   Mostly Cloudy
2:55 AM 35.6°F 33.8°F 93% 30.34 in 9.0 miles Calm Calm - N/A   Mostly Cloudy
3:15 AM 35.6°F 33.8°F 93% 30.33 in 9.0 miles Calm Calm - N/A   Mostly Cloudy
3:35 AM 35.6°F 33.8°F 93% 30.33 in 2.5 miles Calm Calm - N/A   Overcast
4:15 AM 35.6°F 33.8°F 93% 30.32 in 2.0 miles Calm Calm - N/A   Overcast
4:35 AM 35.6°F 33.8°F 93% 30.32 in 4.0 miles Calm Calm - N/A   Overcast
4:55 AM 35.6°F 33.8°F 93% 30.31 in 7.0 miles Calm Calm - N/A   Overcast
5:15 AM 35.6°F 33.8°F 93% 30.32 in 10.0 miles SE 3.5 mph - N/A   Overcast
5:35 AM 35.6°F 33.8°F 93% 30.31 in 10.0 miles Calm Calm - N/A   Overcast
5:55 AM 35.6°F 33.8°F 93% 30.30 in 10.0 miles Calm Calm - N/A   Overcast
6:15 AM 35.6°F 33.8°F 93% 30.30 in 10.0 miles Calm Calm - N/A   Overcast
6:35 AM 35.6°F 33.8°F 93% 30.30 in 10.0 miles Calm Calm - N/A   Overcast
6:55 AM 37.4°F 33.8°F 87% 30.30 in 10.0 miles Calm Calm - N/A   Overcast
7:15 AM 37.4°F 33.8°F 87% 30.31 in 10.0 miles Calm Calm - N/A   Overcast
7:35 AM 37.4°F 33.8°F 87% 30.31 in 10.0 miles Calm Calm - N/A   Overcast
7:55 AM 37.4°F 35.6°F 93% 30.32 in 10.0 miles Calm Calm - N/A   Overcast
8:15 AM 37.4°F 33.8°F 87% 30.32 in 10.0 miles Calm Calm - N/A   Overcast
8:35 AM 37.4°F 33.8°F 87% 30.32 in 10.0 miles Calm Calm - N/A   Overcast
8:55 AM 39.2°F 35.6°F 87% 30.33 in 10.0 miles Calm Calm - N/A   Overcast
9:15 AM 39.2°F 35.6°F 87% 30.33 in 10.0 miles Calm Calm - N/A   Overcast
9:35 AM 39.2°F 35.6°F 87% 30.32 in 10.0 miles Calm Calm - N/A   Overcast
9:55 AM 39.2°F 35.6°F 87% 30.32 in 10.0 miles North 4.6 mph - N/A   Overcast
10:15 AM 41.0°F 35.6°F 81% 30.33 in 10.0 miles North 3.5 mph - N/A   Overcast
10:35 AM 42.8°F 37.4°F 81% 30.32 in 10.0 miles NNW 4.6 mph - N/A   Overcast
10:55 AM 42.8°F 37.4°F 81% 30.33 in 10.0 miles NNW 4.6 mph - N/A   Mostly Cloudy
11:15 AM 44.6°F 37.4°F 76% 30.32 in 10.0 miles NW 5.8 mph - N/A   Partly Cloudy
11:35 AM 44.6°F 37.4°F 76% 30.31 in 10.0 miles NW 3.5 mph - N/A   Clear
11:55 AM 44.6°F 37.4°F 76% 30.30 in 10.0 miles WNW 5.8 mph - N/A   Clear
12:15 PM 46.4°F 37.4°F 71% 30.29 in 10.0 miles NNW 3.5 mph - N/A   Clear
12:35 PM 46.4°F 39.2°F 76% 30.29 in 10.0 miles Calm Calm - N/A   Clear
12:55 PM 48.2°F 39.2°F 71% 30.28 in 10.0 miles West 3.5 mph - N/A   Clear
1:15 PM 48.2°F 39.2°F 71% 30.28 in 10.0 miles Calm Calm - N/A   Clear
1:35 PM 50.0°F 39.2°F 66% 30.27 in 10.0 miles West 3.5 mph - N/A   Clear
1:55 PM 51.8°F 39.2°F 62% 30.27 in 10.0 miles Calm Calm - N/A   Clear
2:15 PM 51.8°F 39.2°F 62% 30.27 in 10.0 miles Calm Calm - N/A   Clear
2:35 PM 51.8°F 39.2°F 62% 30.27 in 10.0 miles SW 3.5 mph - N/A   Clear
2:55 PM 51.8°F 39.2°F 62% 30.26 in 10.0 miles Calm Calm - N/A   Clear
3:15 PM 53.6°F 39.2°F 58% 30.26 in 10.0 miles Calm Calm - N/A   Clear
3:35 PM 53.6°F 41.0°F 62% 30.26 in 10.0 miles Calm Calm - N/A   Clear
3:55 PM 53.6°F 41.0°F 62% 30.26 in 10.0 miles Calm Calm - N/A   Clear
4:15 PM 53.6°F 41.0°F 62% 30.26 in 10.0 miles SE 4.6 mph - N/A   Clear
4:35 PM 53.6°F 41.0°F 62% 30.26 in 10.0 miles SE 3.5 mph - N/A   Clear
4:55 PM 53.6°F 39.2°F 58% 30.25 in 10.0 miles SSE 3.5 mph - N/A   Clear
5:15 PM 50.0°F 39.2°F 66% 30.25 in 10.0 miles Calm Calm - N/A   Clear
5:35 PM 48.2°F 39.2°F 71% 30.25 in 10.0 miles Calm Calm - N/A   Clear
5:55 PM 46.4°F 39.2°F 76% 30.25 in 10.0 miles Calm Calm - N/A   Clear
6:15 PM 44.6°F 39.2°F 81% 30.25 in 10.0 miles Calm Calm - N/A   Clear
6:35 PM 42.8°F 39.2°F 87% 30.25 in 10.0 miles Calm Calm - N/A   Clear
6:55 PM 42.8°F 37.4°F 81% 30.25 in 10.0 miles Calm Calm - N/A   Clear
7:15 PM 42.8°F 37.4°F 81% 30.25 in 10.0 miles Calm Calm - N/A   Clear
7:35 PM 39.2°F 37.4°F 93% 30.26 in 10.0 miles Calm Calm - N/A   Clear
7:55 PM 41.0°F 37.4°F 87% 30.25 in 10.0 miles Calm Calm - N/A   Clear
8:15 PM 39.2°F 35.6°F 87% 30.26 in 10.0 miles NW 4.6 mph - N/A   Clear
8:35 PM 39.2°F 37.4°F 93% 30.27 in 10.0 miles Calm Calm - N/A   Clear
8:55 PM 37.4°F 35.6°F 93% 30.27 in 10.0 miles Calm Calm - N/A   Clear
9:15 PM 39.2°F 35.6°F 87% 30.28 in 10.0 miles Calm Calm - N/A   Clear
9:35 PM 37.4°F 35.6°F 93% 30.28 in 10.0 miles Calm Calm - N/A   Clear
9:55 PM 35.6°F 32.0°F 87% 30.29 in 10.0 miles Calm Calm - N/A   Clear
10:15 PM 37.4°F 33.8°F 87% 30.29 in 10.0 miles Calm Calm - N/A   Clear
10:35 PM 37.4°F 33.8°F 87% 30.31 in 10.0 miles Calm Calm - N/A   Clear
10:55 PM 37.4°F 33.8°F 87% 30.32 in 10.0 miles Calm Calm - N/A   Clear
11:15 PM 33.8°F 30.2°F 87% 30.31 in 2.0 miles Calm Calm - N/A   Clear
11:35 PM 37.4°F 33.8°F 87% 30.30 in 10.0 miles East 3.5 mph - N/A   Mostly Cloudy
11:55 PM 37.4°F 35.6°F 93% 30.30 in 10.0 miles SE 3.5 mph - N/A   Overcast
Moon Phase
Feb. 02 Feb. 03 Feb. 10 Feb. 17 Feb. 25
Sunrise:07:32 AM (PST) Moon Rise:No Moon Rise/
Sunset:05:18 PM (PST) Moon Set:10:20 AM (PST)

Copyright © 2014 The Weather Underground, Inc.